Erie, PA

11:51 AM EST on December 12, 2019 (GMT -0500)
Erie International

Weather History for KERI - October, 2019

Change the Weather History Date:

Sunday, October 27, 2019

  Actual Average Record
Temperature  
Mean Temperature 56 °F 50 °F  
Max Temperature 63 °F 57 °F 80 °F (1947)
Min Temperature 49 °F 42 °F 27 °F (1942)
Degree Days  
Heating Degree Days 9 15  
Month to date heating degree days 224 315  
Since 1 July heating degree days 236 439  
Cooling Degree Days 0 0  
Month to date cooling degree days 22 7  
Year to date cooling degree days 847 636  
Growing Degree Days 6 (Base 50)    
Moisture  
Dew Point 49 °F    
Average Humidity 76    
Maximum Humidity 86    
Minimum Humidity 62    
Precipitation  
Precipitation 0.20 in 0.13 in 1.73 in (1939)
Month to date precipitation 2.33 3.56  
Year to date precipitation 31.96 34.00  
Snow  
Snow 0.00 in 0.00 in - ()
Month to date snowfall 0.0 0.1  
Since 1 July snowfall 0.0 0.1  
Since 1 September snowfall 0.0 0.1  
Snow Depth 0.00 in    
Sea Level Pressure  
Sea Level Pressure 29.78 in    
Wind  
Wind Speed 18 mph ()    
Max Wind Speed 32 mph    
Max Gust Speed 52 mph    
Visibility 9.1 miles    
Events Rain    
T = Trace of Precipitation, MM = Missing Value Source: Averaged Metar Reports

Daily Weather History Graph

Daily Weather History Graph

Search for Another Location

Airport or City:

Astronomy

Oct. 27, 2019 Rise Set
Actual Time 7:47 AM EDT 6:21 PM EDT
Civil Twilight 7:18 AM EDT 6:50 PM EDT
Nautical Twilight 6:45 AM EDT 7:22 PM EDT
Astronomical Twilight 6:13 AM EDT 7:55 PM EDT
Moon 6:51 AM EDT (10/27) 6:31 PM EDT (10/27)
Length of Visible Light 11h 31m
Length of Day
10h 34m
Waning Crescent, 0% of the Moon is Illuminated
Oct 27
Waning Crescent
Oct 27
New
Nov 4
First Quarter
Nov 12
Full
Nov 19
Last Quarter

Hourly Weather History & Observations

Time (EDT) Temp. Dew Point Humidity Pressure Visibility Wind Dir Wind Speed Gust Speed Precip Events Conditions
12:51 AM 55.9 °F 50.0 °F 80% 29.70 in 10.0 mi SE 25.3 mph 38.0 mph 0.06 in Rain Light Rain
1:51 AM 57.0 °F 51.1 °F 81% 29.66 in 10.0 mi SSE 27.6 mph 40.3 mph 0.05 in   Overcast
2:51 AM 57.9 °F 52.0 °F 81% 29.61 in 10.0 mi SSE 28.8 mph 41.4 mph 0.01 in   Overcast
3:51 AM 59.0 °F 53.1 °F 81% 29.60 in 10.0 mi SSE 24.2 mph 35.7 mph 0.01 in Rain Light Rain
4:51 AM 60.1 °F 54.0 °F 80% 29.59 in 10.0 mi SSE 24.2 mph 33.4 mph 0.06 in   Scattered Clouds
5:51 AM 61.0 °F 54.0 °F 78% 29.53 in 10.0 mi SSE 25.3 mph 43.7 mph 0.00 in   Partly Cloudy
6:51 AM 62.1 °F 54.0 °F 75% 29.56 in 10.0 mi South 24.2 mph 33.4 mph N/A   Clear
7:51 AM 63.0 °F 55.0 °F 75% 29.57 in 10.0 mi South 16.1 mph 25.3 mph N/A   Overcast
8:51 AM 63.0 °F 55.0 °F 75% 29.58 in 10.0 mi South 18.4 mph 28.8 mph 0.00 in Rain Light Rain
9:51 AM 61.0 °F 48.0 °F 62% 29.64 in 10.0 mi SW 27.6 mph 36.8 mph 0.00 in   Overcast
10:35 AM 57.0 °F 48.0 °F 72% 29.68 in 8.0 mi SW 21.9 mph 39.1 mph 0.00 in Rain Light Rain
10:51 AM 55.9 °F 48.0 °F 75% 29.69 in 10.0 mi SW 19.6 mph 26.5 mph 0.00 in   Overcast
11:51 AM 55.9 °F 46.0 °F 69% 29.74 in 10.0 mi SW 18.4 mph 34.5 mph 0.00 in   Overcast
12:51 PM 55.0 °F 45.0 °F 69% 29.78 in 10.0 mi SW 23.0 mph 36.8 mph N/A   Overcast
1:51 PM 55.0 °F 45.0 °F 69% 29.80 in 10.0 mi SW 17.3 mph 28.8 mph N/A   Overcast
2:51 PM 54.0 °F 46.9 °F 77% 29.82 in 7.0 mi SW 15.0 mph 26.5 mph N/A   Overcast
3:04 PM 53.1 °F 48.0 °F 83% 29.82 in 2.5 mi SW 16.1 mph 27.6 mph 0.00 in Rain Light Rain
3:20 PM 53.1 °F 48.9 °F 86% 29.84 in 2.0 mi SW 12.7 mph 27.6 mph 0.00 in Rain Light Rain
3:37 PM 53.1 °F 48.9 °F 86% 29.85 in 5.0 mi SW 17.3 mph 25.3 mph 0.01 in Rain Light Rain
3:51 PM 54.0 °F 48.9 °F 83% 29.86 in 10.0 mi WSW 11.5 mph 20.7 mph 0.01 in   Overcast
4:14 PM 55.9 °F 48.9 °F 77% 29.87 in 10.0 mi WSW 18.4 mph 29.9 mph N/A   Overcast
4:51 PM 57.0 °F 48.0 °F 72% 29.90 in 10.0 mi West 19.6 mph 32.2 mph N/A   Overcast
5:51 PM 57.0 °F 48.9 °F 74% 29.93 in 10.0 mi West 15.0 mph 24.2 mph N/A   Overcast
6:51 PM 57.0 °F 48.9 °F 74% 29.96 in 10.0 mi WSW 10.4 mph 18.4 mph N/A   Overcast
7:51 PM 55.9 °F 48.0 °F 75% 29.98 in 10.0 mi WSW 9.2 mph - N/A   Overcast
8:51 PM 55.0 °F 48.0 °F 77% 30.00 in 10.0 mi SW 9.2 mph - N/A   Overcast
9:51 PM 55.9 °F 48.0 °F 75% 30.03 in 10.0 mi WSW 6.9 mph - N/A   Overcast
10:09 PM 55.0 °F 48.0 °F 77% 30.03 in 10.0 mi SW 8.1 mph - N/A   Overcast
10:51 PM 54.0 °F 48.0 °F 80% 30.05 in 10.0 mi SSW 6.9 mph - N/A   Overcast